NOAA 16 DEB

Satellite information

Favourite Embed

Satellite Type and Status

DEBRISDECAYED

Key statistics

Satellite NOAA 16 DEB at a glance.

Uptime

8881

Days in orbit

Revolutions

≈ 15.3

Per day

Orbit

SSO

Sun Synchronous Orbit

Inclination

98.9

Latest

Satellite identification and parameters

Extended collection of information and parameters for NOAA 16 DEB.

Object identification

Identified? True

Debris? True

Object name: NOAA 16 DEB

International designator: 2000-055PD

Object number (NORAD): 41664

Object ID (CCSDS): 41664

Country: UNITED STATES OF AMERICA (US)

Current information (Y/N): Y

RCS size: SMALL

Orbital parameters

Decay date: Jan. 14, 2025

Period: 94.253 minutes

Inclination: 98.8529 deg

SMA: 6860.515 km

Apoapsis: 495.685 km

Periapsis: 469.075 km

RAAN: 168.0264 deg

Eccentricy: 0.0019394

Argument of periapsis: 302.0488 deg

Mean anomaly: 57.8862 deg

Mean motion: 15.27804096 rev/day

Mean motion (dot): 0.00850626 rev/day2

B* drag term: 0.028765 1/REarth

Two-line elements (TLE)

Creation date: Jan. 13, 2025, 10:46 p.m.

Reference frame: TEME

Reference center: EARTH

Epoch: Dec. 21, 2024, 10:47 a.m. UTC

TLE line 0: 0 NOAA 16 DEB

TLE line 1: 1 41664U 00055PD 24356.44965467 .00850626 00000-0 28765-1 0 9992

TLE line 2: 2 41664 98.8529 168.0264 0019394 302.0488 57.8862 15.27804096451482

Live tracking on map

Satellite NOAA 16 DEB has decayed and is no longer in orbit. No tracking available.

In-orbit conjunctions

Satellite NOAA 16 DEB has decayed and is no longer in orbit. No conjunctions available.

Associated space launch

The NOAA K, L and M POES satellites begin the fifth generation of improved environmental monitoring in support of NOAA missions. The instrument payload has significant improvements and additions/deletions. The instrument changes have effected the spacecraft subsystems and data formats.

NOAA 16 DEB was lifted into orbit during the mission ‘Titan II SLV | NOAA 16’, on board a Titan II SLV space rocket.

The launch took place on Sept. 21, 2000, 10:22 a.m. from Space Launch Complex 4W.

For more information about the launch, click the button.

Launch to space Titan II SLV | NOAA 16
Titan II SLV | NOAA 16

Agency: N/A

Status: Launch Successful

Launch date: Sept. 21, 2000, 10:22 a.m. UTC

Rocket: Titan II SLV

Launch pad: Space Launch Complex 4W

Location: Vandenberg SFB, CA, USA

...

Latest news about this satellite

There are no fresh news available about this satellite. Check back as we update our databases every day.


Newsletter sign-up

Weekly statistics, charts and insights to help you stay on top of the space industry.